Cedar City, UT

8:19 AM MDT on April 23, 2017 (GMT -0600)
Cedar City Regional

Weather History for KCDC - January, 2014

Change the Weather History Date:

Wednesday, January 1, 2014

  Actual Average Record
Temperature  
Mean Temperature 34 °F 28 °F  
Max Temperature 47 °F 41 °F 62 °F (1964)
Min Temperature 21 °F 16 °F -15 °F (2011)
Degree Days  
Heating Degree Days 31 37  
Month to date heating degree days 31 37  
Since 1 July heating degree days 2886 2599  
Cooling Degree Days 0 0  
Month to date cooling degree days 0 0  
Year to date cooling degree days 0 0  
Moisture  
Dew Point 22 °F    
Average Humidity 67    
Maximum Humidity 88    
Minimum Humidity 45    
Precipitation  
Precipitation 0.00 in 0.03 in 0.52 in (1982)
Month to date precipitation 0.00 0.03  
Year to date precipitation 0.00 0.03  
Sea Level Pressure  
Sea Level Pressure 30.32 in    
Wind  
Wind Speed 4 mph (ENE)    
Max Wind Speed 9 mph    
Max Gust Speed 11 mph    
Visibility 10 miles    
Events      
T = Trace of Precipitation, MM = Missing Value Source: NWS Daily Summary

Daily Weather History Graph

Daily Weather History Graph

Search for Another Location

Airport or City:

Trip Planner

Search our weather history database for the weather conditions in past years. The results will help you decide how hot, cold, wet, or windy it might be!

Date:

Astronomy

Jan. 01, 2014 Rise Set
Actual Time 7:47 AM MST 5:24 PM MST
Civil Twilight 7:18 AM MST 5:53 PM MST
Nautical Twilight 6:45 AM MST 6:26 PM MST
Astronomical Twilight 6:13 AM MST 6:58 PM MST
Moon 7:42 AM MST (1/1) 6:12 PM MST (1/1)
Length of Visible Light 10h 35m
Length of Day
9h 36m
New Moon, 0% of the Moon is Illuminated
Jan 1
New Moon
Jan 7
First Quarter
Jan 15
Full
Jan 23
Last Quarter
Jan 30
New

Hourly Weather History & Observations

Time (MST) Temp. Windchill Dew Point Humidity Pressure Visibility Wind Dir Wind Speed Gust Speed Precip Events Conditions
12:53 AM 26.1 °F - 19.9 °F 78% 30.20 in 10.0 mi Calm Calm - N/A   Clear
1:53 AM 28.9 °F 22.8 °F 21.9 °F 75% 30.18 in 10.0 mi SSE 5.8 mph - N/A   Clear
2:53 AM 23.0 °F 15.8 °F 19.0 °F 85% 30.22 in 10.0 mi NNE 5.8 mph - N/A   Clear
3:53 AM 24.1 °F 16.0 °F 19.0 °F 81% 30.23 in 10.0 mi ENE 6.9 mph - N/A   Clear
4:53 AM 21.9 °F 17.2 °F 18.0 °F 85% 30.26 in 10.0 mi NNE 3.5 mph - N/A   Clear
5:53 AM 24.1 °F 15.2 °F 19.0 °F 81% 30.27 in 10.0 mi ENE 8.1 mph - N/A   Clear
6:53 AM 21.9 °F 15.7 °F 18.0 °F 85% 30.30 in 10.0 mi ENE 4.6 mph - N/A   Clear
7:53 AM 23.0 °F 17.0 °F 17.1 °F 78% 30.32 in 10.0 mi ESE 4.6 mph - N/A   Clear
8:53 AM 28.0 °F 24.2 °F 21.0 °F 75% 30.35 in 10.0 mi ENE 3.5 mph - N/A   Clear
9:53 AM 32.0 °F 28.7 °F 21.9 °F 66% 30.37 in 10.0 mi East 3.5 mph - N/A   Clear
10:53 AM 36.0 °F - 21.9 °F 57% 30.38 in 10.0 mi Calm Calm - N/A   Clear
11:53 AM 39.9 °F - 24.1 °F 53% 30.36 in 10.0 mi Calm Calm - N/A   Clear
12:53 PM 44.1 °F 40.1 °F 25.0 °F 47% 30.32 in 10.0 mi North 6.9 mph - N/A   Clear
1:53 PM 46.0 °F 43.1 °F 26.1 °F 46% 30.27 in 10.0 mi NNW 5.8 mph - N/A   Clear
2:53 PM 45.0 °F 41.2 °F 26.1 °F 48% 30.30 in 10.0 mi NNW 6.9 mph - N/A   Clear
3:53 PM 45.0 °F 42.6 °F 26.1 °F 48% 30.30 in 10.0 mi WNW 4.6 mph - N/A   Clear
4:53 PM 42.1 °F 39.2 °F 26.1 °F 53% 30.32 in 10.0 mi SW 4.6 mph - N/A   Clear
5:53 PM 35.1 °F 32.2 °F 24.1 °F 64% 30.35 in 10.0 mi NNW 3.5 mph - N/A   Clear
6:53 PM 32.0 °F - 23.0 °F 69% 30.40 in 10.0 mi Calm Calm - N/A   Clear
7:53 PM 30.9 °F - 21.9 °F 69% 30.41 in 10.0 mi Calm Calm - N/A   Clear
8:53 PM 28.9 °F - 21.9 °F 75% 30.40 in 10.0 mi Calm Calm - N/A   Clear
9:53 PM 26.1 °F 19.4 °F 21.0 °F 81% 30.40 in 10.0 mi SSW 5.8 mph - N/A   Clear
10:53 PM 25.0 °F 19.3 °F 21.0 °F 85% 30.40 in 10.0 mi SSE 4.6 mph - N/A   Clear
11:53 PM 24.1 °F 18.2 °F 19.9 °F 84% 30.38 in 10.0 mi SSE 4.6 mph - N/A   Clear